カタログに戻る

STARLINK-31113

運用中通信VLEO
NORAD 58668·PAYLOAD·🇺🇸 United States

打ち上げ Dec 29, 2023 から Cape Canaveral Space Force Station

Loading…

次のパス (今後24時間)

TLE

最新Source: CelesTrak SupGP

元期: Sep 15, 2026, 01:42 UTC

1 58668C 23211B   26258.07131944  .00042645  00000+0  15444-2 0  2582
2 58668  43.0021  95.4537 0001612 274.1311  10.7256 15.27560995    18

AllMySatでSTARLINK-31113をリアルタイム追跡

Download on the App Store